Change the Weather History Date:

Monday, March 18, 2013

  Actual Average Record
Temperature  
Mean Temperature 55 °F -  
Max Temperature 62 °F 66 °F 88 °F (1982)
Min Temperature 48 °F 43 °F 27 °F (1967)
Degree Days  
Heating Degree Days 10    
Growing Degree Days 5 (Base 50)    
Moisture  
Dew Point 47 °F    
Average Humidity 80    
Maximum Humidity 100    
Minimum Humidity 46    
Precipitation  
Precipitation 0.25 in - - ()
Sea Level Pressure  
Sea Level Pressure 29.82 in    
Wind  
Wind Speed 4 mph (NW)    
Max Wind Speed 16 mph    
Max Gust Speed 25 mph    
Visibility 8 miles    
Events Rain , Thunderstorm    
Averages and records for this station are not official NWS values.
T = Trace of Precipitation, MM = Missing Value Source: NWS Daily Summary

Daily Weather History Graph

Daily Weather History Graph

Search for Another Location

Airport or City:

Trip Planner

Search our weather history database for the weather conditions in past years. The results will help you decide how hot, cold, wet, or windy it might be!

Date:

Astronomy

Mar. 18, 2013 Rise Set
Actual Time 7:18 AM CDT 7:22 PM CDT
Civil Twilight 6:53 AM CDT 7:47 PM CDT
Nautical Twilight 6:24 AM CDT 8:17 PM CDT
Astronomical Twilight 5:54 AM CDT 8:46 PM CDT
Moon 11:32 AM CDT (3/18) 1:08 AM CDT (3/18)
Length of Visible Light 12h 54m
Length of Day
12h 04m
Waxing Crescent, 41% of the Moon is Illuminated
Mar 18
Waxing Crescent
Mar 19
First Quarter
Mar 27
Full
Apr 2
Last Quarter
Apr 10
New

Hourly Weather History & Observations

Time (CDT) Temp. Dew Point Humidity Pressure Visibility Wind Dir Wind Speed Gust Speed Precip Events Conditions
12:53 AM 50.0 °F 48.0 °F 93% 29.71 in 6.0 mi Calm Calm - N/A   Mostly Cloudy
1:53 AM 50.0 °F 46.9 °F 89% 29.70 in 7.0 mi Calm Calm - N/A   Mostly Cloudy
2:53 AM 48.9 °F 46.9 °F 93% 29.71 in 4.0 mi NW 3.5 mph - N/A   Mostly Cloudy
3:25 AM 48.2 °F 48.2 °F 100% 29.72 in 5.0 mi WNW 3.5 mph - N/A   Overcast
3:53 AM 50.0 °F 48.0 °F 93% 29.72 in 5.0 mi Variable 3.5 mph - N/A   Overcast
4:11 AM 50.0 °F 48.2 °F 94% 29.71 in 6.0 mi Calm Calm - N/A   Overcast
4:50 AM 50.0 °F 48.2 °F 94% 29.71 in 6.0 mi Calm Calm - N/A   Overcast
4:53 AM 50.0 °F 48.0 °F 93% 29.70 in 6.0 mi Calm Calm - N/A   Overcast
5:09 AM 51.8 °F 48.2 °F 88% 29.72 in 7.0 mi Calm Calm - N/A   Overcast
5:53 AM 51.1 °F 48.0 °F 89% 29.73 in 8.0 mi Calm Calm - N/A   Overcast
6:53 AM 52.0 °F 48.9 °F 89% 29.76 in 9.0 mi NW 3.5 mph - N/A   Overcast
7:53 AM 52.0 °F 48.9 °F 89% 29.78 in 10.0 mi NW 4.6 mph - 0.00 in   Overcast
8:53 AM 53.1 °F 48.9 °F 86% 29.79 in 10.0 mi Variable 6.9 mph - N/A   Overcast
9:16 AM 53.6 °F 48.2 °F 82% 29.86 in 10.0 mi West 16.1 mph 25.3 mph N/A Thunderstorm Thunderstorm
9:27 AM 51.8 °F 48.2 °F 88% 29.84 in 1.8 mi North 9.2 mph 19.6 mph 0.19 in Rain , Thunderstorm Heavy Thunderstorms and Rain
9:36 AM 51.8 °F 48.2 °F 88% 29.81 in 2.5 mi Variable 4.6 mph - 0.24 in Rain , Thunderstorm Thunderstorms and Rain
9:44 AM 53.6 °F 48.2 °F 82% 29.78 in 7.0 mi East 5.8 mph - 0.25 in Rain , Thunderstorm Light Thunderstorms and Rain
9:53 AM 55.0 °F 48.0 °F 77% 29.72 in 10.0 mi ENE 12.7 mph - 0.25 in Rain , Thunderstorm Light Rain
10:53 AM 52.0 °F 50.0 °F 93% 29.79 in 8.0 mi NW 4.6 mph - 0.00 in Rain , Thunderstorm Light Rain
11:03 AM 51.8 °F 50.0 °F 94% 29.81 in 9.0 mi NNW 5.8 mph - 0.00 in   Mostly Cloudy
11:53 AM 54.0 °F 48.9 °F 83% 29.82 in 10.0 mi NW 6.9 mph - 0.00 in   Overcast
12:39 PM 55.4 °F 50.0 °F 82% 29.84 in 10.0 mi NNW 6.9 mph - N/A   Overcast
12:53 PM 57.0 °F 50.0 °F 77% 29.84 in 10.0 mi NW 5.8 mph - N/A   Overcast
1:53 PM 55.0 °F 48.0 °F 77% 29.85 in 10.0 mi NNW 11.5 mph 17.3 mph N/A   Overcast
2:53 PM 55.9 °F 46.9 °F 72% 29.86 in 10.0 mi NW 9.2 mph - N/A   Overcast
3:53 PM 60.1 °F 46.9 °F 62% 29.86 in 10.0 mi NW 9.2 mph - N/A   Mostly Cloudy
4:02 PM 60.8 °F 44.6 °F 55% 29.87 in 10.0 mi NW 9.2 mph 17.3 mph N/A   Partly Cloudy
4:53 PM 61.0 °F 43.0 °F 52% 29.87 in 10.0 mi North 8.1 mph - N/A   Clear
5:53 PM 62.1 °F 41.0 °F 46% 29.88 in 10.0 mi North 5.8 mph - N/A   Clear
6:53 PM 60.1 °F 41.0 °F 49% 29.92 in 10.0 mi NNW 5.8 mph - N/A   Clear
7:53 PM 55.9 °F 43.0 °F 62% 29.94 in 10.0 mi Calm Calm - N/A   Clear
8:53 PM 52.0 °F 43.0 °F 71% 29.98 in 10.0 mi WNW 3.5 mph - N/A   Clear
9:53 PM 50.0 °F 42.1 °F 74% 30.02 in 10.0 mi NW 5.8 mph - N/A   Clear
10:53 PM 48.0 °F 39.9 °F 74% 30.05 in 10.0 mi NNW 3.5 mph - N/A   Clear
11:53 PM 48.0 °F 37.9 °F 68% 30.05 in 10.0 mi Calm Calm - N/A   Clear